[[{"header":{"parameterUnit":"m.s-1","parameterCategory":1,"la1":30.2991,"la2":30.254,"lo1":-89.0895,"lo2":-89.0444,"dy":0.0017,"dx":0.0017,"nx":28,"ny":28,"refTime":"2025-08-16T09:00:00:Z","depth":0,"parameterNumber":2,"parameterNumberName":"U-component_of_WINDS"},"data":[0,0,0,0,0,0,0,0,0,0,0,0,0,0,0,0,0,0,0,0,0,0,0,0,0,0,0,0,0,0,0,0,0,0,0,0,0,0,0,0,0,0,0,0,0,0,0,0,0,0,0,0,0,0,0,0,0,0,1.2019,1.202,0,1.2026,1.2026,1.2026,1.1973,1.1972,1.197,1.1969,1.1978,1.1979,1.1981,0,0,0,0,0,0,0,0,0,0,0,0,0,1.1965,1.1966,1.2019,1.202,1.202,1.2026,1.2026,1.2026,1.1973,1.1971,1.197,1.1968,1.1977,1.1979,1.1981,0,0,0,0,0,0,0,0,0,0,0,0,0,1.1981,1.1966,1.2019,1.1994,1.1992,1.2026,1.2026,1.2026,1.1974,1.1971,1.1969,1.1967,1.1977,1.1979,1.1981,1.2041,0,0,1.1989,1.199,0,0,0,0,0,0,0,0,1.1981,1.1984,1.1998,1.1996,1.1993,1.1996,1.201,1.2031,1.1974,1.1981,1.1969,1.1966,1.1986,1.1987,1.1994,1.2041,1.2041,1.1989,1.199,1.1992,1.1992,0,0,0,0,0,0,0,1.1979,1.1983,1.2022,1.1998,1.1995,1.1983,1.1983,1.2013,1.1996,1.198,1.1976,1.1977,1.1984,1.1991,1.1993,1.2041,1.1989,1.1991,1.1993,1.1994,1.2137,1.214,0,0,0,0,0,0,1.1981,1.1982,1.2022,1.2022,1.1981,1.1986,1.1986,1.1998,1.1995,1.1993,1.1979,1.1975,1.1988,1.1991,1.1993,1.2062,1.1992,1.1994,1.1995,1.2135,1.2138,1.214,0,0,0,0,0,0,1.198,1.1985,1.2021,1.2001,1.2005,1.1989,1.2003,1.1999,1.2006,1.1995,1.1992,1.1989,1.1987,1.199,1.2029,1.2062,1.1995,1.1997,1.2132,1.2136,1.2139,1.22,0,0,0,0,0,0,1.1979,1.1985,1.2007,1.2002,1.2006,1.2056,1.2005,1.2001,1.201,1.2004,1.2003,1.2001,1.1985,1.2026,1.2031,1.2064,1.1999,1.2129,1.2134,1.2138,1.2195,1.2205,1.2214,0,0,0,0,0,1.1977,1.2025,1.2008,1.2014,1.2033,1.2058,1.2061,1.204,1.2013,1.2035,1.2027,1.2001,1.2057,1.203,1.2036,1.207,1.2127,1.2133,1.2138,1.2191,1.2203,1.2214,0,0,0,0,0,0,1.2035,1.2024,1.2005,1.2052,1.2057,1.2049,1.2076,1.2054,1.2067,1.2061,1.2037,1.2037,1.208,1.2079,1.2049,1.2127,1.2087,1.2094,1.2126,1.2137,1.2147,1.2146,1.2001,0,0,0,0,0,1.2053,1.2074,1.2063,1.2106,1.2109,1.2092,1.2103,1.2087,1.209,1.2092,1.2088,1.2093,1.2111,1.2124,1.2141,1.2195,1.2194,1.2221,1.223,1.2238,1.2244,1.2272,1.2284,1.2158,1.2158,1.2158,0,0,1.2091,1.2087,1.2102,1.2117,1.2118,1.2141,1.2094,1.212,1.2137,1.2096,1.2132,1.2129,1.2134,1.218,1.22,1.218,1.2279,1.2245,1.2251,1.2253,1.2279,1.2291,1.2301,1.2162,1.2161,1.216,0,0,1.2171,1.217,1.2205,1.2207,1.221,1.2198,1.2207,1.2203,1.2199,1.2235,1.2204,1.2225,1.2257,1.2261,1.2268,1.235,1.2326,1.2356,1.2405,1.2433,1.2443,1.2451,1.248,1.2491,1.2362,1.2362,1.2362,0,1.2218,1.225,1.2226,1.2254,1.2262,1.2225,1.2261,1.2264,1.2272,1.2279,1.2256,1.2296,1.2297,1.2343,1.2363,1.237,1.2379,1.2356,1.2443,1.2451,1.2459,1.2486,1.2497,1.2366,1.2365,1.2365,1.2365,0,1.2307,1.233,1.2358,1.2365,1.2376,1.2408,1.239,1.2404,1.2388,1.2379,1.2416,1.2415,1.243,1.244,1.2425,1.2485,1.2472,1.2447,1.2407,1.2475,1.25,1.251,1.2371,1.237,1.2369,1.2368,0,0,1.2423,1.2417,1.2428,1.2431,1.2431,1.2448,1.2478,1.2493,1.2505,1.2512,1.2537,1.2565,1.2541,1.2549,1.2533,1.2558,1.2622,1.2529,1.2529,1.2546,1.2688,1.2707,1.2719,1.2606,1.2608,1.261,1.2687,0,1.2501,1.2551,1.2531,1.2583,1.2604,1.257,1.2596,1.2599,1.2592,1.2609,1.2602,1.2622,1.2589,1.2594,1.2616,1.2609,1.265,1.2603,1.2629,1.2631,1.2629,1.2732,1.2752,1.2825,1.2697,1.2699,1.27,0,1.2598,1.2608,1.2662,1.2658,1.2666,1.269,1.2701,1.2718,1.2721,1.2714,1.2722,1.2701,1.2731,1.2692,1.2733,1.2701,1.2711,1.2709,1.2712,1.2713,1.2669,1.2736,1.2848,1.2859,1.2715,1.2714,1.2713,0,1.2676,1.2704,1.2739,1.2743,1.2739,1.2757,1.2756,1.2757,1.2766,1.2777,1.2783,1.2797,1.2805,1.2817,1.28,1.2773,1.2844,1.2803,1.2839,1.284,1.2855,1.2854,1.297,1.2863,1.2862,1.2862,1.2862,0,1.2765,1.2799,1.2774,1.2796,1.2834,1.2811,1.2849,1.2845,1.2846,1.2867,1.2838,1.2859,1.2836,1.2855,1.2843,1.2878,1.2882,1.2878,1.2874,1.288,1.2881,1.2886,1.288,1.2865,1.2864,1.2864,1.2863,0,1.2859,1.2844,1.288,1.2873,1.2872,1.29,1.2895,1.2915,1.2906,1.2933,1.2938,1.2924,1.2944,1.2929,1.295,1.2942,1.2988,1.2978,1.2987,1.2984,1.3021,1.3017,1.3144,1.3159,1.3042,1.3043,1.3044,0,1.2916,1.2941,1.2937,1.2949,1.295,1.2969,1.2978,1.2957,1.2968,1.2974,1.2993,1.3011,1.3024,1.3058,1.305,1.3066,1.3055,1.3098,1.3057,1.3062,1.3055,1.3054,1.3056,1.3107,1.3108,1.3109,1.311,0,1.3019,1.301,1.3024,1.3036,1.3048,1.3057,1.3063,1.3075,1.3053,1.3067,1.3087,1.3097,1.3117,1.3135,1.3148,1.3148,1.3126,1.3123,1.3132,1.3138,1.3142,1.314,1.3009,1.312,1.3119,1.3118,1.3118,1.3117,1.3095,1.3116,1.3116,1.3134,1.3136,1.3143,1.3161,1.3154,1.317,1.3184,1.3171,1.3195,1.3198,1.3212,1.3215,1.3234,1.3216,1.3229,1.3233,1.3236,1.3241,1.314,1.3236,1.3236,1.3235,1.3235,1.3235,0,1.3196,1.3194,1.321,1.322,1.3234,1.3211,1.3217,1.323,1.3251,1.3255,1.3268,1.329,1.3308,1.3301,1.3317,1.3333,1.3323,1.3338,1.3336,1.3336,1.3256,1.3246,1.3345,1.3345,1.3345,1.3345,1.3345,1.3345,1.325,1.3284,1.3275,1.331,1.3309,1.3331,1.3336,1.3342,1.3345,1.3372,1.3386,1.3381,1.3381,1.3396,1.3411,1.3409,1.3415,1.3434,1.3428,1.3353,1.3342,1.3332,1.3322,1.3435,1.3436,1.3506,1.3507,1.3507]},{"header":{"parameterUnit":"m.s-1","parameterCategory":1,"la1":30.2991,"la2":30.254,"lo1":-89.0895,"lo2":-89.0444,"dy":0.0017,"dx":0.0017,"nx":28,"ny":28,"refTime":"2025-08-16T09:00:00:Z","depth":0,"parameterNumber":3,"parameterNumberName":"V-component_of_WINDS"},"data":[0,0,0,0,0,0,0,0,0,0,0,0,0,0,0,0,0,0,0,0,0,0,0,0,0,0,0,0,0,0,0,0,0,0,0,0,0,0,0,0,0,0,0,0,0,0,0,0,0,0,0,0,0,0,0,0,0,0,2.0463,2.0464,0,2.0487,2.0487,2.0487,2.0451,2.0449,2.0448,2.0447,2.047,2.0472,2.0473,0,0,0,0,0,0,0,0,0,0,0,0,0,2.0384,2.0386,2.0463,2.0464,2.0464,2.0487,2.0487,2.0487,2.0451,2.0449,2.0448,2.0446,2.0469,2.0471,2.0473,0,0,0,0,0,0,0,0,0,0,0,0,0,2.0414,2.0386,2.0463,2.0449,2.0448,2.0487,2.0487,2.0487,2.0451,2.0449,2.0447,2.0446,2.0468,2.0471,2.0474,2.0528,0,0,2.0482,2.0483,0,0,0,0,0,0,0,0,2.0413,2.0417,2.045,2.045,2.0449,2.0464,2.0467,2.0501,2.0452,2.045,2.0447,2.0445,2.0469,2.0472,2.048,2.0529,2.053,2.0482,2.0484,2.0485,2.0486,0,0,0,0,0,0,0,2.0411,2.0416,2.0473,2.0451,2.045,2.044,2.0442,2.0474,2.047,2.045,2.0447,2.045,2.0468,2.0478,2.048,2.053,2.0482,2.0484,2.0486,2.0487,2.0622,2.0624,0,0,0,0,0,0,2.0411,2.0414,2.0472,2.0473,2.0426,2.0443,2.0445,2.0461,2.0469,2.0469,2.0452,2.0449,2.0474,2.0477,2.0481,2.0544,2.0485,2.0487,2.0489,2.062,2.0622,2.0624,0,0,0,0,0,0,2.0409,2.0416,2.0471,2.0443,2.0449,2.0446,2.0464,2.0462,2.0472,2.0471,2.047,2.0463,2.0473,2.0477,2.0516,2.0544,2.0489,2.0491,2.0617,2.062,2.0623,2.067,0,0,0,0,0,0,2.0407,2.0416,2.0438,2.0444,2.0451,2.0507,2.0466,2.0464,2.0476,2.0472,2.0481,2.048,2.0472,2.0512,2.0519,2.0547,2.0493,2.0615,2.0619,2.0622,2.0666,2.0675,2.0682,0,0,0,0,0,2.0404,2.045,2.0439,2.0446,2.0478,2.0508,2.0512,2.0502,2.0479,2.05,2.0499,2.048,2.054,2.0516,2.0523,2.0553,2.0613,2.0618,2.0622,2.0663,2.0673,2.0681,0,0,0,0,0,0,2.0448,2.0451,2.0438,2.0488,2.0498,2.0502,2.0529,2.0513,2.053,2.0525,2.0511,2.0513,2.0554,2.0557,2.0531,2.0604,2.0572,2.0578,2.0601,2.0611,2.0618,2.0617,2.0495,0,0,0,0,0,2.0463,2.0488,2.0489,2.0533,2.0539,2.0533,2.0546,2.0536,2.0546,2.055,2.0552,2.0562,2.0582,2.0597,2.0616,2.0666,2.0666,2.0689,2.0697,2.0703,2.0709,2.0733,2.0743,2.0639,2.0639,2.0639,0,0,2.0496,2.05,2.0517,2.0542,2.0549,2.0573,2.0537,2.0566,2.0583,2.0554,2.0591,2.0592,2.0602,2.0646,2.0665,2.065,2.0737,2.0709,2.0714,2.0716,2.0739,2.0749,2.0757,2.0642,2.0641,2.0641,0,0,2.0568,2.0574,2.061,2.0617,2.0627,2.0622,2.063,2.0636,2.0636,2.0672,2.065,2.067,2.0707,2.0714,2.0722,2.0792,2.0775,2.0799,2.0839,2.0863,2.0871,2.0879,2.0903,2.0911,2.0804,2.0804,2.0804,0,2.0607,2.0644,2.0631,2.066,2.067,2.0644,2.0679,2.0686,2.0702,2.071,2.0691,2.0735,2.0739,2.0784,2.08,2.0808,2.0817,2.0798,2.0871,2.0878,2.0885,2.0908,2.0917,2.0807,2.0807,2.0806,2.0806,0,2.0691,2.0716,2.0744,2.0759,2.0772,2.0805,2.0795,2.081,2.0798,2.0794,2.083,2.0834,2.0853,2.0862,2.0852,2.0904,2.0894,2.0874,2.0842,2.0898,2.0919,2.0928,2.0811,2.081,2.0809,2.0808,0,0,2.0794,2.0798,2.0809,2.0814,2.0821,2.084,2.087,2.0887,2.09,2.091,2.0934,2.0964,2.0944,2.0954,2.0943,2.0964,2.1018,2.0941,2.0941,2.0955,2.1074,2.109,2.11,2.1005,2.1007,2.1008,2.1073,0,2.0864,2.0916,2.0903,2.0954,2.0976,2.0949,2.0974,2.0981,2.0978,2.0995,2.0991,2.1012,2.0985,2.0991,2.101,2.1007,2.1041,2.1002,2.1027,2.1028,2.1026,2.1111,2.1128,2.1189,2.1081,2.1083,2.1084,0,2.0955,2.0967,2.102,2.1021,2.103,2.1053,2.1066,2.1084,2.109,2.1085,2.1094,2.1079,2.1106,2.1073,2.111,2.1083,2.1092,2.1092,2.1094,2.1096,2.106,2.1116,2.1209,2.1218,2.1097,2.1096,2.1095,0,2.1024,2.1054,2.1089,2.1094,2.1096,2.1112,2.1114,2.1118,2.1128,2.1139,2.1145,2.116,2.1168,2.1179,2.1167,2.1144,2.1205,2.1171,2.1202,2.1202,2.1217,2.1216,2.1313,2.1222,2.1222,2.1222,2.1222,0,2.1104,2.1137,2.1119,2.1141,2.1176,2.1159,2.1195,2.1193,2.1196,2.1215,2.1193,2.1212,2.1194,2.1211,2.1202,2.1233,2.1237,2.1234,2.1231,2.1236,2.1237,2.1243,2.1238,2.1225,2.1224,2.1224,2.1223,0,2.1188,2.1177,2.1213,2.1211,2.1211,2.1237,2.1234,2.1253,2.1247,2.1272,2.1277,2.1267,2.1285,2.1274,2.1293,2.1286,2.1327,2.1318,2.1325,2.1323,2.1354,2.1351,2.1458,2.1471,2.1372,2.1373,2.1374,0,2.1241,2.1265,2.1264,2.1275,2.1278,2.1297,2.1306,2.1289,2.13,2.1307,2.1325,2.1341,2.1353,2.1384,2.1378,2.1392,2.1383,2.1419,2.1385,2.1389,2.1383,2.1382,2.1384,2.1427,2.1428,2.1429,2.1429,0,2.1334,2.1327,2.1342,2.1354,2.1365,2.1374,2.1382,2.1392,2.1374,2.1388,2.1406,2.1415,2.1433,2.1449,2.146,2.1461,2.1442,2.144,2.1448,2.1453,2.1456,2.1455,2.1344,2.1438,2.1437,2.1436,2.1436,2.1436,2.1404,2.1423,2.1425,2.1441,2.1444,2.145,2.1467,2.1462,2.1477,2.149,2.1478,2.15,2.1502,2.1514,2.1517,2.1533,2.1518,2.1529,2.1532,2.1535,2.1539,2.1453,2.1535,2.1534,2.1534,2.1534,2.1534,0,2.1496,2.1495,2.151,2.1519,2.1531,2.1511,2.1517,2.1529,2.1547,2.1551,2.1562,2.1582,2.1596,2.159,2.1603,2.1617,2.1608,2.1621,2.162,2.162,2.1552,2.1544,2.1627,2.1627,2.1627,2.1627,2.1627,2.1627,2.1545,2.1577,2.1569,2.16,2.1598,2.1619,2.1623,2.1628,2.163,2.1653,2.1665,2.166,2.1659,2.1671,2.1683,2.1681,2.1687,2.1702,2.1697,2.1634,2.1625,2.1616,2.1608,2.1703,2.1704,2.1763,2.1764,2.1764]}]]